{"data":{"norad_id":46052,"epoch":"2026-05-25T04:02:35.261088Z","epoch_age_seconds":57607,"freshness":"FRESH","line1":"1 46052U 20055AB  26145.16846367  .00149956  00000+0  81306-3 0  9992","line2":"2 46052  53.1585 107.2755 0001937 120.6871 239.4342 15.79105757320917","mean_motion":15.79105757,"eccentricity":0.0001937,"inclination_deg":53.1585,"raan_deg":107.2755,"arg_perigee_deg":120.6871,"mean_anomaly_deg":239.4342,"bstar":0.00081306,"rev_number":32091,"period_min":91.190852393302,"perigee_km":331.67315278694,"apogee_km":334.27303683767,"semimajor_km":6711.1100948123,"source":"CELESTRAK","updated_at":"2026-05-25T13:38:16.461338Z"}}